Location: Apalco
(33.3585°N, 93.4602°W)
Time: 11:57:10
(UTC+00:00)

Tiangong - Pass Details

Date: 23 September 2021
Orbit: 382 x 385 km, 41.5° (Epoch: 18 October)

Event Time Altitude Azimuth Distance (km) Brightness Sun altitude
Exits shadow 11:29:08 - 224° (SW) 1,806 4.0 -7.9°
Reaches altitude 10° 11:30:11 10° 219° (SW) 1,386 3.5 -7.6°
Maximum altitude 11:33:10 41° 147° (SSE) 561 2.2 -7.0°
Drops below altitude 10° 11:36:09 10° 75° (ENE) 1,392 5.6 -6.4°
Sets 11:38:17 0° 68° (ENE) 2,246 6.6 -6.0°
